Wind_Speed
11 11 10 10 11 11 10 10 10 10 10 11 11 11 11 11 11 11 11 11 12 12 12 12 12 11 11 10 10 10 9 9 9 8 8 7 7 6 6 6 5 5 5
12 12 12 12 12 11 11 11 11 11 11 11 12 12 12 12 12 12 12 12 12 12 11 11 12 12 11 10 10 11 11 10 10 10 9 9 8 8 7 7 7 6 6
13 13 13 13 12 12 12 12 12 12 12 12 13 13 13 13 13 13 13 13 13 13 12 12 12 12 12 12 11 11 11 11 12 12 11 10 10 9 9 9 9 8 7
14 14 13 13 13 12 13 13 13 13 13 13 13 13 13 14 14 14 13 13 14 13 13 13 13 13 13 13 13 12 12 12 13 13 13 12 12 11 11 11 10 10 9
15 15 14 14 13 14 14 14 14 14 14 14 14 14 14 14 14 14 15 14 14 14 14 14 14 14 14 15 14 13 13 13 14 14 14 13 13 13 13 13 12 12 11
16 16 16 15 15 15 16 15 15 15 14 14 14 15 15 15 15 16 16 16 16 16 15 15 16 16 16 16 15 15 14 14 15 15 15 14 14 14 14 14 14 14 13
17 17 17 17 17 17 17 17 16 16 16 16 16 15 16 16 16 17 17 17 17 17 17 17 17 17 17 17 17 16 16 16 16 17 16 16 16 16 16 16 16 15 15
18 18 18 18 18 18 18 18 18 18 18 18 18 17 17 17 17 17 17 18 18 18 18 18 18 18 19 18 18 18 17 18 17 18 18 18 18 18 17 17 17 17 17
20 20 20 20 20 20 19 19 19 20 20 20 20 20 19 19 19 19 19 19 19 19 20 20 19 19 20 20 19 19 19 19 19 20 20 19 20 19 19 19 18 18 18
22 22 22 21 21 21 21 21 21 21 21 21 21 21 21 21 21 21 20 21 21 21 21 21 21 21 21 21 21 21 21 21 21 22 22 21 21 21 21 21 20 20 20
23 23 23 23 23 23 22 22 22 22 22 22 23 23 23 23 22 22 22 22 22 22 22 22 22 23 22 23 23 23 23 23 23 23 23 23 23 23 23 23 22 22 22
25 25 24 25 25 24 24 24 23 23 23 23 24 25 25 24 24 24 24 23 23 23 23 23 24 24 24 24 25 25 25 25 25 25 25 25 26 26 25 25 24 24 24
27 27 26 26 26 26 26 26 25 25 24 24 25 25 25 26 26 25 25 25 25 25 25 25 25 26 26 26 26 27 27 27 27 27 27 27 28 28 28 28 27 27 26
28 29 29 28 28 28 28 27 27 27 26 26 27 27 27 27 27 27 28 28 28 28 27 27 28 28 29 29 29 29 29 29 29 29 29 29 29 30 30 30 30 29 29
30 30 30 30 30 30 30 29 29 28 28 29 29 29 29 29 29 29 30 30 30 30 30 30 30 31 31 31 31 31 31 32 32 32 31 31 31 32 32 32 32 32 32
32 32 32 32 32 32 32 31 31 31 31 31 31 31 31 31 31 31 31 32 32 32 32 32 32 33 33 33 33 34 33 33 34 34 34 33 34 34 34 34 34 34 34
33 33 33 34 34 34 34 34 33 33 33 33 33 33 34 34 33 33 33 34 35 35 35 35 35 35 36 36 36 36 36 36 36 36 36 37 37 37 37 37 37 37 37
35 34 35 35 35 35 35 35 36 36 36 36 35 35 35 36 36 36 35 36 37 37 37 37 38 38 38 38 39 39 39 38 38 39 39 39 40 40 40 40 40 40 40
36 36 36 36 36 37 37 37 37 38 38 38 37 37 37 38 38 39 39 39 39 39 39 40 40 41 40 41 41 41 41 41 41 41 42 42 42 43 43 43 43 43 43
37 37 37 37 37 38 38 39 39 40 40 40 39 40 40 40 40 41 41 42 42 42 41 42 42 42 43 43 43 43 43 44 44 44 44 44 45 45 45 46 46 46 46
38 38 38 38 39 39 40 40 40 40 41 42 42 42 43 43 43 44 44 44 45 45 44 44 44 44 45 45 45 45 45 45 46 46 46 46 47 47 47 48 48 49 49
39 39 40 40 40 40 41 41 41 42 42 43 44 45 45 45 45 45 45 46 46 47 47 47 46 46 46 47 47 47 47 47 47 47 47 47 48 49 50 50 51 52 52
40 40 41 41 42 42 42 42 42 43 43 44 45 46 47 47 47 47 47 47 47 48 48 49 49 49 48 49 49 50 50 49 49 49 49 50 50 51 52 53 53 53 53
41 41 41 42 42 43 43 43 44 44 45 46 47 47 47 47 47 47 48 47 48 48 49 49 50 50 50 50 50 51 52 52 52 52 51 52 52 52 53 54 55 54 54
41 41 42 42 43 43 44 45 45 45 46 46 47 47 47 47 48 48 48 47 48 48 49 50 50 51 52 52 52 52 53 53 53 53 53 53 53 53 54 54 55 56 55
40 41 42 42 43 44 45 45 46 46 47 47 47 47 48 48 48 48 48 49 49 49 49 50 51 51 52 53 53 53 54 55 54 54 54 54 54 54 55 55 56 56 56
Wind_Direction
257 256 257 258 261 262 262 262 263 266 269 272 270 268 267 265 263 262 258 257 254 256 254 251 250 248 250 251 251 250 248 248 249 248 249 248 247 244 241 241 242 241 241
256 257 258 258 259 261 261 263 262 265 268 269 270 269 267 264 262 261 259 258 258 257 256 256 256 253 253 253 252 251 249 248 248 246 247 248 249 248 248 248 247 245 248
255 257 258 258 258 260 261 262 263 263 265 268 269 270 268 266 263 259 258 258 258 256 256 258 258 255 254 253 253 251 250 249 249 247 247 249 251 252 252 252 250 249 251
257 256 257 256 257 257 259 262 265 265 266 268 269 268 267 264 262 260 259 258 257 255 255 255 257 256 255 255 255 252 251 251 251 250 250 251 253 254 254 254 252 251 252
257 255 255 255 255 256 258 260 264 266 267 267 267 265 263 261 262 261 259 259 259 258 257 257 256 257 256 255 254 255 255 253 253 252 252 253 254 256 256 255 255 255 252
257 255 255 255 256 257 259 260 261 262 264 264 264 263 261 260 262 263 262 260 261 260 260 261 259 257 256 256 256 259 257 255 253 253 254 255 256 259 257 256 256 258 254
257 256 255 256 256 257 259 260 261 261 262 262 262 261 260 260 260 262 264 262 262 261 260 261 261 258 257 257 258 259 258 256 254 254 255 257 258 258 257 258 258 258 256
259 257 255 256 256 258 258 259 260 260 261 262 263 262 261 261 260 261 262 261 260 260 260 261 261 261 259 260 260 259 259 259 257 257 257 258 259 257 257 258 259 256 257
260 259 256 257 258 259 259 260 261 261 262 264 265 265 264 263 263 260 260 260 260 260 260 261 262 262 262 261 261 260 259 260 258 258 259 259 259 258 257 258 259 258 257
259 259 258 258 259 259 260 261 262 262 262 263 264 264 265 265 264 261 260 261 261 261 261 261 262 261 261 261 261 261 261 260 259 258 258 259 259 258 257 258 259 259 259
259 259 259 258 259 260 261 262 263 263 264 263 263 263 264 264 266 266 264 263 261 261 262 262 262 261 261 261 261 262 263 261 261 261 260 260 260 259 260 259 259 260 260
261 260 260 260 259 260 261 262 264 264 264 265 265 265 265 265 266 267 267 265 264 263 263 263 263 262 262 263 262 262 263 262 262 262 262 261 260 260 260 260 260 259 260
260 261 261 260 260 260 261 262 264 265 265 266 266 267 267 266 266 266 266 266 266 265 265 264 263 264 263 263 263 263 263 262 261 262 263 262 261 262 262 261 261 260 260
260 260 260 260 260 260 261 262 263 265 266 266 266 267 268 268 267 266 266 267 268 268 267 265 264 264 265 265 264 264 263 263 262 261 261 262 262 262 262 262 262 261 261
260 259 259 259 261 261 261 261 261 263 265 267 268 268 267 268 269 268 267 267 268 268 268 267 265 265 266 266 265 265 264 264 263 262 261 261 262 262 263 262 262 262 261
260 260 260 260 260 260 261 260 262 263 265 266 268 268 268 268 268 269 268 268 268 268 268 267 267 266 265 265 266 265 264 264 263 262 262 262 262 262 263 263 262 262 261
262 261 261 261 260 260 261 261 262 264 265 266 267 268 269 268 268 268 268 269 270 269 269 268 269 268 266 265 265 265 264 264 263 262 262 263 263 263 264 264 264 264 263
262 262 262 262 261 261 261 262 263 263 264 266 267 268 269 269 269 269 269 270 270 270 269 269 269 269 268 267 265 264 264 264 264 263 263 263 264 263 264 264 265 265 264
263 263 263 263 263 263 262 263 263 264 265 265 266 267 269 269 269 270 271 271 271 270 270 270 270 269 268 267 265 265 264 264 264 265 265 264 264 264 264 264 264 264 264
264 263 263 263 264 263 263 263 263 264 265 266 267 268 268 270 270 271 271 272 272 271 270 270 270 269 268 267 266 265 265 265 265 265 266 266 265 265 264 263 264 264 263
265 264 264 264 264 264 264 264 265 265 266 267 268 268 269 270 271 272 272 272 272 271 271 270 270 270 269 268 267 266 266 266 266 267 267 266 266 266 266 265 265 264 264
265 264 264 265 265 265 265 265 265 266 267 267 268 270 271 271 272 272 273 273 272 272 271 271 270 270 270 269 268 267 266 266 266 267 267 266 266 267 267 267 266 265 265
265 264 264 264 264 265 265 266 266 266 267 269 270 271 271 272 272 273 273 274 273 273 272 272 270 269 269 269 269 269 268 266 266 267 267 267 267 267 267 267 267 265 264
265 264 264 264 265 265 266 266 267 267 268 269 270 271 271 272 273 274 274 274 274 274 273 273 271 269 269 269 269 269 269 269 268 268 268 269 268 268 268 268 267 266 265
266 266 265 265 265 266 266 267 267 268 269 270 270 271 271 272 273 274 274 275 275 275 274 273 273 271 271 270 269 269 269 269 270 270 270 269 269 269 269 269 267 266 265
267 267 266 266 265 265 266 267 267 268 269 270 270 271 272 272 272 273 274 275 275 275 274 274 274 273 272 271 270 270 269 270 270 270 270 270 270 270 269 269 268 266 265
Height
5835 5835 5835 5835 5835 5835 5835 5835 5835 5835 5835 5835 5835 5835 5835 5835 5835 5835 5835 5835 5836 5836 5836 5836 5837 5837 5837 5837 5838 5838 5838 5839 5839 5839 5839 5840 5840 5840 5840 5840 5840 5840 5840
5832 5832 5832 5833 5833 5833 5833 5833 5833 5833 5833 5833 5833 5833 5832 5832 5832 5833 5833 5833 5833 5834 5834 5834 5835 5835 5835 5836 5836 5836 5837 5837 5837 5838 5838 5838 5838 5839 5839 5839 5839 5839 5839
5830 5830 5830 5830 5830 5831 5831 5831 5831 5831 5831 5830 5830 5830 5830 5830 5830 5830 5830 5831 5831 5831 5832 5832 5833 5833 5833 5834 5834 5834 5835 5835 5836 5836 5836 5837 5837 5837 5837 5837 5838 5838 5838
5827 5827 5827 5827 5828 5828 5828 5828 5828 5828 5828 5828 5827 5827 5827 5827 5827 5827 5828 5828 5828 5829 5829 5830 5830 5831 5831 5831 5832 5832 5833 5833 5833 5834 5834 5835 5835 5835 5836 5836 5836 5836 5837
5824 5824 5824 5825 5825 5825 5825 5825 5825 5825 5825 5825 5825 5824 5824 5825 5825 5825 5825 5825 5826 5826 5827 5827 5828 5828 5828 5829 5829 5830 5830 5830 5831 5831 5832 5832 5833 5833 5833 5834 5834 5834 5835
5821 5821 5821 5821 5822 5822 5822 5822 5822 5822 5822 5822 5822 5821 5821 5822 5822 5822 5822 5823 5823 5823 5824 5824 5825 5825 5826 5826 5826 5827 5827 5828 5828 5829 5829 5830 5830 5831 5831 5831 5832 5832 5832
5817 5817 5818 5818 5818 5818 5819 5819 5819 5819 5819 5819 5818 5818 5818 5819 5819 5819 5819 5820 5820 5820 5821 5821 5822 5822 5823 5823 5823 5824 5824 5825 5825 5826 5827 5827 5827 5828 5828 5828 5829 5829 5829
5813 5814 5814 5814 5814 5815 5815 5815 5815 5815 5815 5815 5815 5815 5815 5815 5816 5816 5816 5816 5816 5817 5817 5818 5818 5819 5819 5819 5820 5820 5821 5822 5822 5823 5823 5824 5824 5825 5825 5825 5826 5826 5826
5809 5809 5810 5810 5810 5811 5811 5811 5811 5811 5811 5811 5811 5811 5811 5812 5812 5812 5812 5812 5813 5813 5813 5814 5814 5815 5815 5816 5816 5817 5817 5818 5818 5819 5819 5820 5820 5821 5821 5822 5822 5823 5823
5805 5805 5805 5805 5806 5806 5806 5807 5807 5807 5807 5807 5807 5807 5807 5807 5808 5808 5808 5808 5809 5809 5809 5810 5810 5810 5811 5811 5812 5812 5813 5813 5814 5815 5815 5816 5816 5817 5817 5818 5818 5819 5819
5800 5800 5800 5801 5801 5801 5802 5802 5802 5802 5802 5802 5802 5802 5803 5803 5803 5803 5803 5804 5804 5804 5804 5805 5805 5805 5806 5807 5807 5808 5808 5808 5809 5810 5810 5811 5812 5812 5813 5813 5814 5814 5815
5795 5795 5795 5795 5796 5796 5796 5797 5797 5797 5797 5797 5797 5797 5797 5798 5798 5798 5798 5799 5799 5799 5800 5800 5800 5801 5801 5801 5802 5803 5803 5803 5804 5804 5805 5806 5806 5807 5808 5808 5809 5809 5810
5789 5789 5789 5790 5790 5790 5791 5791 5791 5791 5791 5792 5792 5792 5792 5792 5792 5793 5793 5793 5793 5794 5794 5794 5795 5795 5795 5796 5796 5797 5797 5798 5798 5799 5799 5800 5800 5801 5802 5802 5803 5804 5804
5782 5783 5783 5783 5784 5784 5784 5785 5785 5785 5785 5785 5785 5786 5786 5786 5786 5786 5787 5787 5787 5787 5788 5788 5788 5789 5789 5790 5790 5790 5791 5791 5792 5792 5793 5793 5794 5794 5795 5796 5797 5797 5798
5775 5775 5776 5776 5777 5777 5777 5778 5778 5778 5778 5779 5779 5779 5779 5779 5779 5780 5780 5780 5780 5781 5781 5781 5781 5782 5782 5782 5783 5783 5784 5784 5785 5785 5785 5786 5787 5787 5788 5789 5789 5790 5791
5768 5768 5768 5769 5769 5770 5770 5770 5771 5771 5771 5771 5771 5771 5772 5772 5772 5772 5772 5772 5773 5773 5773 5773 5774 5774 5774 5774 5775 5775 5776 5776 5777 5777 5778 5778 5779 5779 5780 5781 5781 5782 5783
5760 5760 5760 5761 5761 5761 5762 5762 5763 5763 5763 5763 5763 5764 5764 5764 5764 5763 5764 5764 5764 5765 5765 5765 5765 5765 5766 5766 5766 5767 5767 5768 5768 5769 5769 5770 5770 5771 5772 5772 5773 5774 5775
5752 5752 5752 5752 5753 5753 5753 5754 5754 5754 5755 5755 5755 5755 5755 5755 5755 5755 5755 5755 5755 5755 5756 5756 5756 5756 5756 5756 5757 5757 5758 5758 5759 5759 5760 5760 5761 5762 5762 5763 5764 5764 5765
5743 5743 5744 5744 5744 5744 5744 5745 5745 5745 5745 5746 5746 5746 5746 5746 5745 5745 5745 5745 5745 5745 5746 5745 5745 5746 5746 5746 5747 5747 5747 5748 5748 5749 5750 5750 5750 5751 5752 5752 5753 5754 5754
5733 5734 5734 5734 5735 5735 5735 5735 5735 5735 5735 5735 5735 5736 5736 5735 5735 5735 5735 5735 5734 5735 5735 5734 5734 5734 5735 5735 5736 5736 5737 5737 5738 5738 5738 5739 5739 5739 5740 5740 5741 5742 5742
5723 5724 5724 5724 5724 5724 5724 5725 5725 5725 5725 5725 5725 5725 5725 5724 5724 5724 5724 5723 5723 5723 5723 5723 5722 5722 5723 5723 5724 5724 5725 5725 5726 5726 5726 5726 5727 5727 5727 5728 5728 5729 5729
5713 5713 5713 5713 5713 5713 5714 5714 5714 5714 5714 5714 5713 5713 5713 5712 5712 5712 5712 5711 5711 5711 5710 5710 5710 5710 5710 5710 5711 5711 5713 5714 5714 5714 5713 5714 5714 5714 5714 5714 5714 5715 5715
5702 5702 5702 5702 5702 5702 5702 5702 5702 5702 5702 5702 5701 5701 5701 5700 5700 5699 5699 5699 5698 5698 5697 5697 5696 5697 5697 5697 5697 5697 5698 5699 5700 5701 5700 5700 5699 5699 5699 5699 5699 5699 5700
5691 5690 5690 5690 5690 5690 5690 5690 5690 5690 5690 5689 5689 5689 5688 5687 5687 5687 5686 5686 5685 5684 5684 5683 5682 5682 5683 5683 5683 5683 5683 5683 5684 5686 5686 5686 5685 5684 5684 5683 5683 5683 5683
5679 5678 5678 5678 5678 5678 5678 5678 5677 5677 5677 5676 5676 5676 5675 5675 5674 5674 5673 5672 5672 5671 5670 5669 5668 5668 5668 5668 5668 5668 5668 5668 5668 5669 5671 5671 5670 5669 5668 5667 5667 5667 5667
5667 5666 5666 5666 5666 5666 5665 5665 5665 5664 5664 5663 5663 5662 5662 5661 5661 5660 5660 5659 5658 5657 5656 5655 5654 5654 5653 5653 5653 5653 5653 5653 5653 5653 5654 5655 5654 5654 5652 5650 5650 5650 5650